[[[{"header":{"parameterUnit":"kt","parameterCategory":2,"dx":1,"dy":1,"la1":30.253999710083008,"la2":30.299108505249023,"lo1":-89.0895004272461,"lo2":-89.04439544677734,"nx":28,"ny":28,"refTime":"2022-10-27T21:00:00:Z","depth":0,"parameterNumber":1,"parameterNumberName":"U-component_of_WINDS"},"data":[-1.2539,-1.2617,-1.2643,-1.2743,-1.2783,-1.2856,-1.289,-1.2937,-1.2981,-1.3071,-1.3127,-1.3161,-1.3216,-1.3289,-1.3351,-1.3365,-1.339,-1.3397,-1.3412,-1.3354,-1.3347,-1.3341,-1.3324,-1.3402,-1.3402,-1.3469,-1.347,-1.347,-1.249,-1.2531,-1.2592,-1.2669,-1.2721,-1.2728,-1.279,-1.2833,-1.2898,-1.2954,-1.3011,-1.3092,-1.316,-1.3214,-1.3283,-1.332,-1.3327,-1.3337,-1.3334,-1.3343,-1.3281,-1.3263,-1.3329,-1.3329,-1.3329,-1.3329,-1.3329,-1.3329,-1.2409,-1.2455,-1.2516,-1.2583,-1.2629,-1.268,-1.2728,-1.277,-1.283,-1.2906,-1.2926,-1.3001,-1.3062,-1.3159,-1.3199,-1.3258,-1.3252,-1.3271,-1.3276,-1.3279,-1.328,-1.3178,-1.3271,-1.3271,-1.3271,-1.3271,-1.3271,0,-1.2357,-1.2375,-1.2437,-1.2505,-1.2555,-1.2611,-1.2667,-1.2698,-1.2747,-1.2795,-1.2867,-1.2913,-1.3003,-1.3073,-1.3145,-1.3183,-1.3197,-1.3202,-1.3214,-1.3205,-1.3187,-1.3197,-1.3094,-1.3199,-1.3198,-1.3198,-1.3198,-1.3198,-1.2276,-1.2327,-1.2405,-1.2444,-1.2482,-1.2545,-1.2588,-1.2628,-1.2672,-1.2747,-1.2785,-1.2857,-1.2916,-1.3027,-1.3076,-1.3144,-1.3151,-1.3188,-1.3162,-1.315,-1.3151,-1.3147,-1.3152,-1.3192,-1.3193,-1.3193,-1.3194,0,-1.2227,-1.2271,-1.2359,-1.2432,-1.2452,-1.2503,-1.2566,-1.2614,-1.265,-1.2721,-1.274,-1.2796,-1.2866,-1.291,-1.2999,-1.302,-1.3104,-1.311,-1.3082,-1.3086,-1.3123,-1.3118,-1.3237,-1.3254,-1.3174,-1.3175,-1.3175,0,-1.2175,-1.2241,-1.2302,-1.2351,-1.2426,-1.2465,-1.2537,-1.2576,-1.263,-1.2686,-1.2709,-1.2761,-1.2809,-1.2868,-1.2899,-1.2975,-1.2993,-1.3013,-1.302,-1.3011,-1.3008,-1.3035,-1.3031,-1.3036,-1.3035,-1.3035,-1.3034,0,-1.2095,-1.2206,-1.2286,-1.2318,-1.2404,-1.244,-1.2478,-1.2539,-1.2581,-1.2643,-1.2671,-1.274,-1.2779,-1.2832,-1.287,-1.2851,-1.2966,-1.2947,-1.2986,-1.2985,-1.301,-1.3008,-1.3102,-1.3033,-1.3033,-1.3033,-1.3033,0,-1.206,-1.2122,-1.2232,-1.2303,-1.2331,-1.2384,-1.2455,-1.251,-1.2574,-1.2596,-1.2646,-1.2667,-1.2738,-1.2716,-1.2815,-1.2778,-1.2814,-1.284,-1.2844,-1.2853,-1.2827,-1.2874,-1.2959,-1.2969,-1.2861,-1.2859,-1.2858,0,-1.1956,-1.2079,-1.2114,-1.2217,-1.228,-1.2302,-1.2361,-1.2417,-1.2453,-1.2511,-1.255,-1.2617,-1.261,-1.2637,-1.268,-1.2724,-1.2772,-1.2719,-1.2802,-1.2805,-1.2784,-1.2863,-1.2864,-1.2935,-1.2841,-1.2842,-1.2844,0,-1.1881,-1.1985,-1.2001,-1.204,-1.2121,-1.2174,-1.2243,-1.2318,-1.2354,-1.2415,-1.2474,-1.2569,-1.2567,-1.2613,-1.2638,-1.268,-1.2741,-1.2673,-1.2675,-1.2683,-1.2836,-1.2837,-1.2849,-1.2748,-1.275,-1.2752,-1.283,0,-1.1817,-1.1885,-1.1931,-1.2017,-1.2065,-1.2133,-1.218,-1.2225,-1.2243,-1.228,-1.2367,-1.2426,-1.2503,-1.2529,-1.2549,-1.2633,-1.2626,-1.2624,-1.2606,-1.2657,-1.2684,-1.2695,-1.2562,-1.2561,-1.2561,-1.2561,0,0,-1.1706,-1.1805,-1.1843,-1.1911,-1.1954,-1.1976,-1.2045,-1.209,-1.218,-1.2209,-1.2199,-1.2342,-1.2391,-1.2492,-1.2512,-1.2544,-1.2563,-1.2544,-1.2633,-1.264,-1.2648,-1.2676,-1.2686,-1.2561,-1.2561,-1.2561,-1.256,0,-1.1693,-1.1742,-1.1809,-1.1857,-1.193,-1.1966,-1.1982,-1.2058,-1.2085,-1.2171,-1.2189,-1.2247,-1.2362,-1.2411,-1.245,-1.2532,-1.2543,-1.2553,-1.258,-1.2629,-1.2637,-1.2644,-1.2673,-1.2683,-1.256,-1.256,-1.256,0,-1.1628,-1.1684,-1.1721,-1.1821,-1.1869,-1.1934,-1.1927,-1.1996,-1.2045,-1.2067,-1.2153,-1.2192,-1.2262,-1.2352,-1.2394,-1.2387,-1.2522,-1.2489,-1.2491,-1.2497,-1.2547,-1.2556,-1.2565,-1.2452,-1.2452,-1.2451,0,0,-1.161,-1.1674,-1.1747,-1.1822,-1.1851,-1.1906,-1.1946,-1.1969,-1.2032,-1.2057,-1.2108,-1.2168,-1.2235,-1.2278,-1.2344,-1.2436,-1.2453,-1.2473,-1.2478,-1.2482,-1.249,-1.2541,-1.255,-1.2449,-1.2449,-1.2449,0,0,-1.1602,-1.169,-1.1698,-1.1791,-1.1849,-1.1927,-1.1971,-1.1984,-1.2048,-1.2045,-1.2089,-1.2107,-1.2192,-1.2231,-1.2196,-1.2338,-1.232,-1.2329,-1.231,-1.2317,-1.2322,-1.2311,-1.2197,0,0,0,0,0,-1.1613,-1.1679,-1.1685,-1.1708,-1.1835,-1.1923,-1.194,-1.1977,-1.1963,-1.1997,-1.2041,-1.2051,-1.2221,-1.2191,-1.2213,-1.2252,-1.2421,-1.2426,-1.243,-1.2428,-1.2435,-1.2441,0,0,0,0,0,0,-1.1623,-1.1651,-1.1684,-1.1764,-1.1793,-1.1921,-1.1905,-1.1917,-1.196,-1.1961,-1.2042,-1.2053,-1.2087,-1.2182,-1.2201,-1.2237,-1.2191,-1.2423,-1.2427,-1.2431,-1.243,-1.2436,-1.2441,0,0,0,0,0,-1.163,-1.1653,-1.1847,-1.1763,-1.1788,-1.1853,-1.1903,-1.1913,-1.1947,-1.2017,-1.2029,-1.1971,-1.2087,-1.2106,-1.2194,-1.2228,-1.2178,-1.2185,-1.2425,-1.2429,-1.2432,-1.2433,0,0,0,0,0,0,-1.1636,-1.1663,-1.1853,-1.1862,-1.1741,-1.1847,-1.1865,-1.1909,-1.2002,-1.2014,-1.1949,-1.1948,-1.2088,-1.2103,-1.2117,-1.2222,-1.2167,-1.2174,-1.2179,-1.2428,-1.2431,-1.2433,0,0,0,0,0,0,-1.1651,-1.167,-1.1858,-1.1828,-1.1834,-1.1841,-1.1857,-1.1937,-1.2002,-1.1928,-1.193,-1.1947,-1.2066,-1.21,-1.2112,-1.2235,-1.2159,-1.2166,-1.217,-1.2174,-1.243,-1.2432,0,0,0,0,0,0,-1.166,-1.1676,-1.1826,-1.1831,-1.1836,-1.1941,-1.1912,-1.2041,-1.1977,-1.1924,-1.1972,-1.197,-1.2064,-1.2076,-1.2108,-1.2227,-1.2233,-1.2159,-1.2164,-1.2167,-1.2169,0,0,0,0,0,0,0,-1.1667,-1.1547,-1.1799,-1.1833,-1.1838,-1.1946,-1.1948,-1.1951,-1.1976,-1.1974,-1.1972,-1.1971,-1.2119,-1.2127,-1.2135,-1.222,0,0,-1.2158,-1.2162,0,0,0,0,0,0,0,0,-1.154,-1.1545,-1.1799,-1.1801,-1.1803,-1.1946,-1.1948,-1.195,-1.1976,-1.1974,-1.1973,-1.1971,-1.2121,-1.2128,-1.2134,0,0,0,0,0,0,0,0,0,0,0,0,0,0,0,-1.18,-1.1801,0,-1.1947,-1.1948,-1.195,-1.1976,-1.1974,-1.1973,-1.1972,-1.2123,-1.2128,-1.2133,0,0,0,0,0,0,0,0,0,0,0,0,0,0,0,0,0,0,0,0,0,0,0,0,0,0,0,0,0,0,0,0,0,0,0,0,0,0,0,0,0,0,0,0,0,0,0,0,0,0,0,0,0,0,0,0,0,0,0,0,0,0,0,0,0,0,0,0,0]}],[{"header":{"parameterUnit":"kt","parameterCategory":2,"dx":1,"dy":1,"la1":30.253999710083008,"la2":30.299108505249023,"lo1":-89.0895004272461,"lo2":-89.04439544677734,"nx":28,"ny":28,"refTime":"2022-10-27T21:00:00:Z","depth":0,"parameterNumber":2,"parameterNumberName":"V-component_of_WINDS"},"data":[-5.0345,-5.0396,-5.0403,-5.0463,-5.0479,-5.052,-5.0537,-5.0558,-5.0577,-5.0625,-5.0654,-5.0664,-5.0683,-5.0717,-5.0746,-5.075,-5.0761,-5.0774,-5.0775,-5.0713,-5.0705,-5.0697,-5.0685,-5.0777,-5.0777,-5.0837,-5.0838,-5.0838,-5.0296,-5.0313,-5.0348,-5.0385,-5.0414,-5.0405,-5.0433,-5.0457,-5.0494,-5.0518,-5.0547,-5.0589,-5.0623,-5.0638,-5.067,-5.0692,-5.0688,-5.07,-5.0697,-5.07,-5.0634,-5.0622,-5.0702,-5.0702,-5.0702,-5.0702,-5.0702,-5.0702,-5.0209,-5.024,-5.0266,-5.0304,-5.0325,-5.0349,-5.0379,-5.0392,-5.0424,-5.0461,-5.0462,-5.0503,-5.0526,-5.0569,-5.0584,-5.0615,-5.0602,-5.0616,-5.0619,-5.0622,-5.0624,-5.0531,-5.0621,-5.062,-5.062,-5.062,-5.062,0,-5.0146,-5.0149,-5.0183,-5.0219,-5.0247,-5.0275,-5.0302,-5.032,-5.0328,-5.0355,-5.0393,-5.0416,-5.046,-5.0495,-5.0527,-5.054,-5.0531,-5.0532,-5.0541,-5.0539,-5.0534,-5.0535,-5.0425,-5.0528,-5.0528,-5.0527,-5.0527,-5.0526,-5.0055,-5.0092,-5.0124,-5.0146,-5.0163,-5.02,-5.0223,-5.0228,-5.0251,-5.0284,-5.031,-5.0346,-5.0375,-5.0434,-5.0447,-5.0479,-5.0474,-5.0513,-5.0479,-5.0477,-5.0472,-5.0468,-5.0471,-5.0518,-5.0519,-5.052,-5.0521,0,-5.0003,-5.0014,-5.0073,-5.0101,-5.0109,-5.0146,-5.0168,-5.0199,-5.0208,-5.0251,-5.0261,-5.0274,-5.0311,-5.0318,-5.0361,-5.0363,-5.0419,-5.0415,-5.041,-5.0409,-5.0442,-5.0438,-5.0553,-5.0568,-5.0475,-5.0476,-5.0477,0,-4.9929,-4.9977,-4.999,-5.0024,-5.0076,-5.008,-5.0131,-5.0144,-5.0166,-5.02,-5.0192,-5.0224,-5.0228,-5.0259,-5.0262,-5.031,-5.0319,-5.0322,-5.0322,-5.0321,-5.0321,-5.0331,-5.0326,-5.0323,-5.0323,-5.0322,-5.0322,0,-4.9844,-4.9909,-4.9964,-4.998,-5.0014,-5.0039,-5.0054,-5.0079,-5.0101,-5.0131,-5.0145,-5.018,-5.0198,-5.0224,-5.0227,-5.0204,-5.0286,-5.0255,-5.0289,-5.0289,-5.0305,-5.0304,-5.0407,-5.0321,-5.0321,-5.0321,-5.032,0,-4.9785,-4.9819,-4.9897,-4.9925,-4.9942,-4.9978,-5.0012,-5.0045,-5.0072,-5.0077,-5.01,-5.0095,-5.014,-5.0107,-5.0167,-5.0136,-5.0153,-5.0161,-5.0164,-5.0166,-5.0129,-5.0183,-5.0283,-5.0292,-5.017,-5.0169,-5.0168,0,-4.9684,-4.9767,-4.9772,-4.9846,-4.9885,-4.9874,-4.9914,-4.9939,-4.9949,-4.9981,-4.9992,-5.0029,-5.0007,-5.0019,-5.0049,-5.006,-5.0101,-5.0055,-5.0097,-5.0099,-5.0088,-5.0181,-5.0193,-5.0261,-5.0152,-5.0154,-5.0155,0,-4.9606,-4.965,-4.9663,-4.9681,-4.9717,-4.975,-4.9796,-4.9835,-4.9857,-4.9886,-4.9923,-4.9977,-4.9962,-4.9983,-4.9983,-5.0013,-5.0073,-4.9992,-4.9992,-5.0004,-5.0146,-5.0156,-5.0168,-5.0066,-5.0068,-5.0069,-5.0142,0,-4.951,-4.9554,-4.9591,-4.9634,-4.9661,-4.9709,-4.9719,-4.9745,-4.9743,-4.9752,-4.9808,-4.983,-4.9869,-4.9885,-4.9883,-4.995,-4.9939,-4.9923,-4.989,-4.9952,-4.9976,-4.9986,-4.9854,-4.9853,-4.9852,-4.9851,0,0,-4.9408,-4.9472,-4.9477,-4.9523,-4.9546,-4.9534,-4.9585,-4.9605,-4.9648,-4.9663,-4.9645,-4.9725,-4.9743,-4.981,-4.983,-4.9846,-4.9858,-4.9837,-4.9923,-4.9931,-4.9939,-4.9964,-4.9975,-4.985,-4.985,-4.985,-4.9849,0,-4.9375,-4.9399,-4.945,-4.9472,-4.9505,-4.9514,-4.9526,-4.9556,-4.9565,-4.9621,-4.9609,-4.9643,-4.9708,-4.9728,-4.9747,-4.983,-4.9817,-4.9841,-4.9882,-4.9915,-4.9924,-4.9932,-4.9959,-4.9969,-4.9848,-4.9848,-4.9848,0,-4.9298,-4.9322,-4.9349,-4.9403,-4.9424,-4.9466,-4.9434,-4.948,-4.951,-4.9493,-4.9549,-4.9563,-4.9591,-4.9655,-4.9683,-4.9668,-4.9779,-4.9746,-4.9751,-4.9754,-4.9787,-4.9798,-4.9807,-4.968,-4.9679,-4.9679,0,0,-4.9268,-4.931,-4.9337,-4.9397,-4.9411,-4.9425,-4.9448,-4.9448,-4.9476,-4.9487,-4.9504,-4.953,-4.9567,-4.9591,-4.9627,-4.9695,-4.97,-4.9725,-4.9733,-4.974,-4.9746,-4.978,-4.9791,-4.9676,-4.9676,-4.9676,0,0,-4.9253,-4.9287,-4.928,-4.9351,-4.9379,-4.9408,-4.9443,-4.9435,-4.9468,-4.9463,-4.9464,-4.9471,-4.953,-4.9544,-4.9512,-4.9614,-4.9582,-4.959,-4.9603,-4.9613,-4.9621,-4.9616,-4.9482,0,0,0,0,0,-4.9224,-4.9283,-4.9276,-4.929,-4.9358,-4.9411,-4.942,-4.9423,-4.94,-4.9428,-4.944,-4.9426,-4.9527,-4.9498,-4.951,-4.9546,-4.9646,-4.9651,-4.9656,-4.9689,-4.97,-4.9709,0,0,0,0,0,0,-4.9229,-4.9246,-4.9275,-4.9306,-4.9322,-4.9409,-4.9371,-4.9373,-4.9397,-4.9394,-4.9425,-4.9427,-4.943,-4.9492,-4.9503,-4.9536,-4.9478,-4.9648,-4.9653,-4.9657,-4.9693,-4.9702,-4.9709,0,0,0,0,0,-4.9234,-4.9247,-4.9357,-4.9305,-4.9319,-4.9337,-4.9369,-4.937,-4.9389,-4.9409,-4.9412,-4.9389,-4.9431,-4.944,-4.9499,-4.9531,-4.947,-4.9474,-4.9651,-4.9655,-4.9658,-4.9697,0,0,0,0,0,0,-4.9237,-4.9248,-4.9359,-4.9363,-4.9284,-4.9332,-4.934,-4.9368,-4.9402,-4.9406,-4.9373,-4.937,-4.9432,-4.9439,-4.9447,-4.9529,-4.9464,-4.9468,-4.9471,-4.9654,-4.9657,-4.9659,0,0,0,0,0,0,-4.9241,-4.9252,-4.9361,-4.9334,-4.9335,-4.9327,-4.9334,-4.9384,-4.9403,-4.9364,-4.9363,-4.9371,-4.9421,-4.9439,-4.9445,-4.9522,-4.9459,-4.9463,-4.9466,-4.9468,-4.9656,-4.9658,0,0,0,0,0,0,-4.9245,-4.9255,-4.9333,-4.9334,-4.9335,-4.9381,-4.9371,-4.9441,-4.9382,-4.9363,-4.9376,-4.9374,-4.9421,-4.9426,-4.9443,-4.9519,-4.9522,-4.9459,-4.9462,-4.9464,-4.9465,0,0,0,0,0,0,0,-4.9249,-4.9187,-4.9335,-4.9334,-4.9334,-4.9401,-4.9402,-4.9403,-4.9381,-4.9379,-4.9377,-4.9375,-4.9436,-4.9441,-4.9445,-4.9516,0,0,-4.9459,-4.9461,0,0,0,0,0,0,0,0,-4.9183,-4.9186,-4.9335,-4.9336,-4.9337,-4.9401,-4.9402,-4.9403,-4.9381,-4.9379,-4.9377,-4.9375,-4.9438,-4.9441,-4.9445,0,0,0,0,0,0,0,0,0,0,0,0,0,0,0,-4.9335,-4.9336,0,-4.9401,-4.9402,-4.9403,-4.938,-4.9379,-4.9377,-4.9376,-4.9439,-4.9441,-4.9444,0,0,0,0,0,0,0,0,0,0,0,0,0,0,0,0,0,0,0,0,0,0,0,0,0,0,0,0,0,0,0,0,0,0,0,0,0,0,0,0,0,0,0,0,0,0,0,0,0,0,0,0,0,0,0,0,0,0,0,0,0,0,0,0,0,0,0,0,0]}]]]